Flag for Sweden Weather past 2 weeks in Stockholm, Sweden

Now
43 °F

Partly sunny.


Feels Like: 40 °F
Forecast: 38 / 43 °F
Wind: 5 mph from Northeast

Location: Stockholm Bromma Airport

Current Time: Oct 21, 2014 at 9:24:05 AM

Latest Report: Oct 21, 2014 at 8:50 AM


Visibility: N/A

Pressure: 29.68 "Hg

Humidity: 87%

Dew point: 39 °F

Location of StockholmLocation

Historic Weather in Stockholm — Graph

°F

Stockholm temperature yesterday

Maximum temperature yesterday: 55 °F (at 12:20 AM)
Minimum temperature yesterday: 45 °F (at 7:50 PM)
Average temperature yesterday: 50 °F

Past Weeks' High & Low Weather Summary

 TemperatureHumidityPressure
High61 °F (Oct 10, 2:20 PM)100% (Oct 8, 9:20 AM)30.54 "Hg (Oct 8, 9:20 AM)
Low32 °F (Oct 17, 5:50 AM)62% (Oct 18, 2:50 PM)29.33 "Hg (Oct 20, 6:50 AM)
Average49 °F88%29.88 "Hg
* Reported Oct 6 8:20 AM — Oct 21 8:20 AM, Stockholm, Weather by CustomWeather, © 2014

Note: Actual official high and low records may vary slightly from our data, if they occured in-between our weather recording intervals... More about our weather records

Advertising

Stockholm weather history for previous 24 hours

 ConditionsComfort  
Time TempWeatherWind HumidityBarometerVisibility
8:20 AM
Oct 21
43 °FPassing clouds.6 mph87%29.68 "HgN/A
7:50 AM43 °FPassing clouds.3 mph87%29.68 "HgN/A
7:20 AM43 °FPassing clouds.5 mph87%29.68 "HgN/A
6:50 AM43 °FPassing clouds.5 mph87%29.68 "HgN/A
6:20 AM43 °FPassing clouds.5 mph87%29.65 "HgN/A
5:50 AM43 °FPassing clouds.6 mph87%29.65 "HgN/A
5:20 AM43 °FOvercast.6 mph87%29.65 "HgN/A
4:50 AM43 °FOvercast.5 mph87%29.65 "HgN/A
4:20 AM43 °FOvercast.5 mph87%29.65 "HgN/A
3:50 AM45 °FOvercast.5 mph81%29.65 "HgN/A
3:20 AM45 °FOvercast.5 mph81%29.65 "HgN/A
2:50 AM45 °FOvercast.6 mph81%29.65 "HgN/A
2:20 AM45 °FOvercast.6 mph87%29.65 "HgN/A
1:50 AM45 °FOvercast.6 mph81%29.62 "HgN/A
1:20 AM45 °FOvercast.6 mph87%29.62 "HgN/A
12:50 AM45 °FOvercast.6 mph87%29.62 "HgN/A
12:20 AM45 °FOvercast.6 mph87%29.62 "HgN/A
11:50 PM
Oct 20
45 °FOvercast.6 mph87%29.59 "HgN/A
11:20 PM45 °FOvercast.3 mph87%29.59 "HgN/A
10:50 PM45 °FOvercast.7 mph87%29.59 "HgN/A
10:20 PM45 °FOvercast.8 mph87%29.59 "HgN/A
9:50 PM45 °FPassing clouds.8 mph87%29.59 "HgN/A
9:20 PM45 °FPassing clouds.8 mph87%29.56 "HgN/A
8:50 PM45 °FPartly cloudy.7 mph87%29.56 "HgN/A
8:20 PM45 °FPassing clouds.7 mph93%29.53 "HgN/A
7:50 PM45 °FPassing clouds.8 mph93%29.53 "HgN/A
7:20 PM46 °FPassing clouds.9 mph87%29.53 "HgN/A
6:50 PM46 °FPassing clouds.8 mph87%29.50 "HgN/A
6:20 PM46 °FPartly sunny.7 mph93%29.50 "HgN/A
5:50 PM46 °FLight rain. Partly sunny.7 mph93%29.47 "HgN/A
5:20 PM46 °FDrizzle. Partly sunny.9 mph93%29.47 "HgN/A
4:50 PM46 °FDrizzle. Fog.10 mph93%29.45 "Hg5 mi
4:20 PM46 °FPartly sunny.10 mph100%29.45 "HgN/A
3:50 PM48 °FPartly sunny.10 mph94%29.42 "HgN/A
3:20 PM48 °FFog.12 mph94%29.42 "Hg5 mi
2:50 PM50 °FDrizzle. Fog.10 mph94%29.39 "Hg5 mi
2:20 PM50 °FLight rain. Fog.12 mph94%29.39 "Hg5 mi
1:50 PM54 °FLight rain. Partly sunny.3 mph94%29.36 "Hg5 mi
1:20 PM54 °FRain. Partly sunny.2 mph94%29.36 "Hg3 mi
12:50 PM54 °FRain. Partly sunny.5 mph94%29.36 "Hg4 mi
12:20 PM54 °FScattered showers. Partly sunny.7 mph94%29.33 "HgN/A
11:50 AM55 °FLight rain. Partly sunny.6 mph88%29.33 "Hg6 mi
11:20 AM55 °FPartly sunny.5 mph88%29.33 "HgN/A
10:50 AM54 °FBroken clouds.6 mph94%29.33 "HgN/A
10:20 AM54 °FBroken clouds.7 mph94%29.33 "HgN/A
9:50 AM54 °FBroken clouds.6 mph94%29.33 "HgN/A
9:20 AM54 °FBroken clouds.7 mph94%29.33 "HgN/A
Weather by CustomWeather, © 2014

See weather overviewHow to use our weather pages